[[{"header":{"parameterUnit":"m.s-1","parameterCategory":2,"la1":30.2992,"la2":30.254,"lo1":-89.0895,"lo2":-89.0443,"dy":0.0025,"dx":0.0025,"nx":19,"ny":19,"refTime":"2026-04-22T03:00:00:Z","depth":"0","parameterNumber":2,"parameterNumberName":"U-component_of_CURRENTS"},"data":[0,0,0,0.3053,0.3056,0.3168,0.3169,0.3299,0.33,0,0,0,0,0,0,0,0,0,0,0,0.3013,0.3014,0.3053,0.3056,0.3168,0.3169,0.3298,0.33,0,0,0,0,0,0,0,0,0,0,0,0.3013,0.3014,0.3015,0.3056,0.3168,0.3169,0.3298,0.3216,0,0,0,0,0,0,0,0,0,0,0.3108,0.3068,0.3013,0.3015,0.3057,0.3168,0.3169,0.3212,0.3221,0.3245,0,0.3269,0,0.3291,0.3309,0.3309,0,0,0,0.3051,0.306,0.3099,0.3015,0.3058,0.3168,0.3116,0.3217,0.3227,0.3257,0.3271,0.3276,0.3293,0.331,0.331,0.3489,0.349,0,0,0.3045,0.3025,0.3092,0.3106,0.3096,0.3113,0.312,0.3223,0.3232,0.3272,0.328,0.3296,0.331,0.3311,0.3488,0.3489,0,0,0,0.3031,0.302,0.3057,0.31,0.3124,0.3116,0.3124,0.3227,0.3243,0.3281,0.3297,0.3311,0.3313,0.3487,0.3488,0.3511,0,0,0,0.3027,0.3013,0.3054,0.3042,0.3122,0.3178,0.3126,0.3235,0.3248,0.3296,0.3311,0.3314,0.3486,0.3488,0.3508,0.3497,0,0,0,0.3006,0.301,0.3028,0.3041,0.3093,0.3177,0.3197,0.3238,0.3258,0.3309,0.3314,0.3485,0.3487,0.3505,0.3494,0.3493,0,0,0,0.2975,0.3014,0.3027,0.3089,0.3092,0.3201,0.3197,0.3276,0.3324,0.3312,0.3486,0.3488,0.3504,0.3492,0.3492,0.342,0.3421,0,0,0.3008,0.3018,0.3059,0.3074,0.316,0.3185,0.3288,0.3341,0.3367,0.3447,0.3452,0.3509,0.3494,0.3493,0.3553,0.355,0,0,0,0.3059,0.3074,0.3113,0.3161,0.3242,0.3303,0.3361,0.3405,0.3486,0.3408,0.355,0.354,0.3538,0.3493,0.3492,0.3514,0.3499,0.3499,0.3499,0.3024,0.308,0.3137,0.321,0.3285,0.339,0.3456,0.3524,0.3545,0.3594,0.3589,0.3645,0.3602,0.3599,0.3625,0.3636,0.3637,0.3637,0.3637,0.3029,0.3042,0.3129,0.3197,0.3285,0.3372,0.353,0.3569,0.3661,0.3667,0.3664,0.3558,0.3598,0.3627,0.3639,0.3638,0.3638,0.3638,0.3638,0.2955,0.2967,0.302,0.3092,0.3185,0.3326,0.3415,0.3543,0.3659,0.3687,0.3617,0.3615,0.3608,0.3678,0.3678,0.3678,0.3678,0.3678,0.3678,0.2829,0.2889,0.2877,0.2973,0.3002,0.311,0.3324,0.3416,0.3553,0.3629,0.3628,0.3641,0.3657,0.3618,0.3678,0.3678,0.3678,0.3678,0.3678,0.2743,0.2721,0.2714,0.2719,0.2784,0.2812,0.3044,0.3254,0.3376,0.3431,0.3593,0.3599,0.3574,0.3575,0.3535,0.357,0.357,0.357,0.357,0.2635,0.2639,0.2576,0.2545,0.2553,0.2672,0.2738,0.2989,0.3325,0.3466,0.3565,0.3555,0.3559,0.3533,0.3535,0.3495,0.3519,0.352,0.352,0.2578,0.257,0.2501,0.2468,0.2452,0.2522,0.2562,0.2754,0.3246,0.3524,0.3616,0.3618,0.3613,0.3616,0.3582,0.3583,0.3519,0,0]},{"header":{"parameterUnit":"m.s-1","parameterCategory":2,"la1":30.2992,"la2":30.254,"lo1":-89.0895,"lo2":-89.0443,"dy":0.0025,"dx":0.0025,"nx":19,"ny":19,"refTime":"2026-04-22T03:00:00:Z","depth":"0","parameterNumber":3,"parameterNumberName":"V-component_of_CURRENTS"},"data":[0,0,0,0.0291,0.029,0.0228,0.0228,0.0094,0.0093,0,0,0,0,0,0,0,0,0,0,0,0.0311,0.0311,0.0291,0.029,0.0228,0.0228,0.0094,0.0093,0,0,0,0,0,0,0,0,0,0,0,0.0311,0.0311,0.0311,0.029,0.0228,0.0228,0.0095,0.015,0,0,0,0,0,0,0,0,0,0,0.0215,0.0246,0.0311,0.0311,0.0289,0.0229,0.0228,0.0153,0.0147,0.0112,0,0.0115,0,0.0107,0.0084,0.0084,0,0,0,0.0272,0.0251,0.0241,0.0311,0.0289,0.0229,0.0251,0.015,0.0143,0.0103,0.0113,0.0108,0.0105,0.0084,0.0083,0.001,0.001,0,0,0.0275,0.0287,0.0246,0.0237,0.0288,0.0253,0.0249,0.0146,0.0139,0.0112,0.0105,0.0103,0.0083,0.0082,0.001,0.001,0,0,0,0.0297,0.029,0.0282,0.0242,0.0239,0.0252,0.0247,0.0143,0.0144,0.0104,0.0101,0.0082,0.008,0.0009,0.001,0.0159,0,0,0,0.0298,0.0304,0.0284,0.0289,0.0242,0.0198,0.0247,0.0151,0.0139,0.0102,0.0082,0.0079,0.0009,0.001,0.0154,0.0244,0,0,0,0.0311,0.0305,0.0304,0.029,0.0272,0.02,0.0192,0.0148,0.0138,0.0084,0.0079,0.0009,0.0009,0.0151,0.0236,0.0288,0,0,0,0.0315,0.0348,0.0305,0.0333,0.0273,0.0269,0.0193,0.0169,0.0131,0.0081,0.0009,0.001,0.0149,0.0231,0.0283,0.0388,0.0419,0,0,0.0368,0.0354,0.0373,0.0333,0.0366,0.0275,0.0292,0.0207,0.012,0.0035,0.0034,0.0156,0.0235,0.0286,0.0409,0.0441,0,0,0,0.0397,0.0418,0.0416,0.042,0.0389,0.038,0.0286,0.0241,0.0174,0.0102,0.0121,0.0166,0.0194,0.0246,0.027,0.0165,0.0011,0.0011,0.0011,0.0491,0.048,0.0526,0.0514,0.0503,0.0442,0.0425,0.034,0.0238,0.0228,0.0262,0.037,0.0425,0.0445,0.0335,0.0217,0.0217,0.0218,0.0218,0.06,0.0637,0.0622,0.0664,0.0637,0.0636,0.0554,0.0493,0.0459,0.0356,0.0375,0.0368,0.0481,0.0354,0.0227,0.0225,0.0224,0.0223,0.0223,0.0674,0.0696,0.0711,0.0772,0.0814,0.0767,0.0831,0.0732,0.0604,0.0635,0.0639,0.0637,0.0547,0.063,0.063,0.0631,0.0632,0.0632,0.0632,0.0745,0.0765,0.0834,0.0891,0.0939,0.1005,0.0991,0.0983,0.0913,0.0821,0.082,0.0577,0.0495,0.0505,0.0642,0.0641,0.0639,0.0638,0.0638,0.0857,0.0847,0.0957,0.1015,0.1147,0.1301,0.1276,0.1305,0.1244,0.1229,0.089,0.0897,0.0858,0.0836,0.0852,0.1071,0.1071,0.1071,0.1072,0.0924,0.0931,0.1072,0.1185,0.1332,0.1436,0.1658,0.165,0.1353,0.1178,0.1006,0.0921,0.0908,0.0863,0.0841,0.0851,0.1065,0.1065,0.1064,0.101,0.1036,0.1159,0.1254,0.1413,0.1613,0.1864,0.197,0.1475,0.1046,0.0843,0.0844,0.069,0.0678,0.0576,0.0554,0.0558,0,0]}],[{"header":{"parameterUnit":"m.s-1","parameterCategory":2,"la1":30.2992,"la2":30.254,"lo1":-89.0895,"lo2":-89.0443,"dy":0.0025,"dx":0.0025,"nx":19,"ny":19,"refTime":"2026-04-22T03:00:00:Z","depth":"2","parameterNumber":2,"parameterNumberName":"U-component_of_CURRENTS"},"data":[0,0,0,0.2838,0.2841,0.297,0.2971,0.3103,0.3104,0,0,0,0,0,0,0,0,0,0,0,0.2784,0.2785,0.2838,0.2842,0.297,0.2971,0.3103,0.3104,0,0,0,0,0,0,0,0,0,0,0,0.2783,0.2784,0.2786,0.2842,0.297,0.2971,0.3102,0.3011,0,0,0,0,0,0,0,0,0,0,0.2888,0.2853,0.2784,0.2786,0.2843,0.297,0.2971,0.3006,0.3016,0.3039,0,0.3064,0,0.3097,0.3113,0.3114,0,0,0,0.2831,0.2844,0.2878,0.2786,0.2844,0.297,0.2909,0.3012,0.3023,0.3052,0.3066,0.3071,0.3099,0.3114,0.3115,0.3304,0.3305,0,0,0.2824,0.2808,0.287,0.2885,0.2885,0.2905,0.2913,0.3019,0.3034,0.3066,0.3075,0.3101,0.3115,0.3116,0.3303,0.3304,0,0,0,0.2811,0.2803,0.2835,0.2879,0.2911,0.2909,0.2918,0.3029,0.3039,0.3077,0.3103,0.3116,0.3117,0.3302,0.3303,0.3322,0,0,0,0.2806,0.2797,0.2831,0.2824,0.2909,0.2979,0.2926,0.3031,0.3045,0.3102,0.3116,0.3119,0.33,0.3302,0.3319,0.3327,0,0,0,0.2776,0.2794,0.281,0.2823,0.2885,0.2978,0.2994,0.3035,0.3062,0.3114,0.3119,0.33,0.3302,0.3316,0.3323,0.3317,0,0,0,0.2753,0.2796,0.281,0.2876,0.2884,0.2989,0.2994,0.3083,0.3133,0.3116,0.3301,0.3303,0.3315,0.332,0.3315,0.3229,0.323,0,0,0.2793,0.2801,0.2841,0.2858,0.2945,0.297,0.3076,0.3142,0.3177,0.3258,0.3263,0.332,0.3323,0.3316,0.3373,0.337,0,0,0,0.2846,0.2859,0.2896,0.295,0.3027,0.3096,0.3161,0.3204,0.3299,0.3222,0.3366,0.3368,0.3362,0.3308,0.3307,0.3315,0.3315,0.3314,0.3314,0.2831,0.2879,0.2934,0.2999,0.3073,0.3189,0.3256,0.3328,0.335,0.3411,0.3417,0.3473,0.3421,0.3418,0.3456,0.3456,0.3457,0.3457,0.3457,0.2842,0.2848,0.2929,0.2997,0.309,0.3181,0.334,0.3388,0.3485,0.3496,0.3488,0.3374,0.3416,0.3459,0.3459,0.3458,0.3458,0.3458,0.3458,0.2772,0.2778,0.2838,0.2913,0.3013,0.3158,0.3246,0.3383,0.3499,0.3528,0.3445,0.3443,0.3443,0.3513,0.3514,0.3514,0.3514,0.3514,0.3514,0.2655,0.2712,0.2716,0.2813,0.2852,0.2971,0.3187,0.3275,0.3404,0.347,0.3469,0.3492,0.349,0.3448,0.3514,0.3514,0.3514,0.3514,0.3514,0.2556,0.2556,0.2563,0.2585,0.2671,0.2697,0.2929,0.3118,0.3235,0.328,0.3427,0.3428,0.3406,0.3406,0.3364,0.3404,0.3404,0.3404,0.3403,0.2451,0.2461,0.2437,0.2431,0.2457,0.2572,0.2614,0.2793,0.3057,0.3153,0.3163,0.3123,0.3134,0.3093,0.3101,0.3051,0.301,0.3009,0.3008,0.2388,0.2398,0.2351,0.2351,0.2362,0.2425,0.2421,0.2448,0.2695,0.2988,0.3054,0.3385,0.3355,0.336,0.3321,0.3325,0.3254,0,0]},{"header":{"parameterUnit":"m.s-1","parameterCategory":2,"la1":30.2992,"la2":30.254,"lo1":-89.0895,"lo2":-89.0443,"dy":0.0025,"dx":0.0025,"nx":19,"ny":19,"refTime":"2026-04-22T03:00:00:Z","depth":"2","parameterNumber":3,"parameterNumberName":"V-component_of_CURRENTS"},"data":[0,0,0,0.0187,0.0187,0.0132,0.0131,0.0003,0.0002,0,0,0,0,0,0,0,0,0,0,0,0.0203,0.0203,0.0187,0.0187,0.0132,0.0131,0.0003,0.0001,0,0,0,0,0,0,0,0,0,0,0,0.0203,0.0203,0.0203,0.0186,0.0132,0.0131,0.0003,0.0055,0,0,0,0,0,0,0,0,0,0,0.0113,0.0144,0.0203,0.0203,0.0186,0.0132,0.0131,0.0057,0.0051,0.0017,0,0.002,0,0.0016,-0.0007,-0.0007,0,0,0,0.0168,0.0149,0.0137,0.0203,0.0186,0.0132,0.0151,0.0054,0.0047,0.0008,0.0018,0.0014,0.0014,-0.0008,-0.0008,-0.0058,-0.0058,0,0,0.0171,0.0184,0.0143,0.0134,0.0185,0.0153,0.015,0.0051,0.0046,0.0017,0.0011,0.0011,-0.0008,-0.0009,-0.0059,-0.0058,0,0,0,0.0192,0.0186,0.0177,0.0138,0.0138,0.0152,0.0148,0.005,0.0048,0.0009,0.001,-0.0009,-0.0011,-0.0059,-0.0059,0.0081,0,0,0,0.0193,0.02,0.0179,0.0185,0.014,0.0102,0.0149,0.0055,0.0044,0.0011,-0.0009,-0.0012,-0.006,-0.0059,0.0077,0.0159,0,0,0,0.0203,0.0201,0.02,0.0186,0.0171,0.0104,0.0096,0.0052,0.0045,-0.0007,-0.0012,-0.006,-0.0059,0.0073,0.0151,0.0193,0,0,0,0.021,0.0245,0.02,0.0234,0.0172,0.0176,0.0096,0.0078,0.0043,-0.001,-0.006,-0.0059,0.0071,0.0146,0.0188,0.0265,0.0294,0,0,0.0267,0.0252,0.0274,0.0233,0.0274,0.0181,0.0207,0.0122,0.004,-0.0036,-0.0037,0.0078,0.015,0.0192,0.0316,0.0343,0,0,0,0.0301,0.0322,0.0323,0.0331,0.0305,0.0296,0.0207,0.0164,0.0103,0.0027,0.0056,0.0097,0.0119,0.0155,0.0176,-0.0055,-0.0055,-0.0055,-0.0055,0.0399,0.039,0.0439,0.0429,0.0423,0.0368,0.0351,0.0271,0.0174,0.0168,0.0195,0.0303,0.0342,0.0359,0.0162,0.0163,0.0163,0.0164,0.0164,0.051,0.0544,0.0533,0.0579,0.0554,0.0558,0.0482,0.0423,0.039,0.0296,0.0309,0.0281,0.0392,0.0175,0.0173,0.0171,0.017,0.0169,0.0169,0.058,0.0599,0.0619,0.0681,0.0724,0.0682,0.0739,0.0648,0.0527,0.0554,0.0538,0.0536,0.0398,0.0545,0.0545,0.0546,0.0546,0.0547,0.0547,0.0641,0.0665,0.0733,0.0792,0.084,0.0902,0.0888,0.0875,0.0798,0.0709,0.0708,0.0431,0.0418,0.0418,0.0556,0.0554,0.0553,0.0552,0.0552,0.0723,0.0728,0.0837,0.0898,0.1032,0.1167,0.1146,0.1152,0.109,0.1066,0.0774,0.0766,0.0724,0.0705,0.071,0.0916,0.0916,0.0916,0.0916,0.0769,0.0784,0.0929,0.1048,0.1194,0.1288,0.1459,0.14,0.1196,0.1037,0.1031,0.0967,0.095,0.0915,0.089,0.0895,0.115,0.115,0.115,0.0819,0.0862,0.0977,0.1098,0.1264,0.1439,0.1614,0.1567,0.125,0.1155,0.1025,0.094,0.0826,0.0808,0.0729,0.07,0.0697,0,0]}],[{"header":{"parameterUnit":"m.s-1","parameterCategory":2,"la1":30.2992,"la2":30.254,"lo1":-89.0895,"lo2":-89.0443,"dy":0.0025,"dx":0.0025,"nx":19,"ny":19,"refTime":"2026-04-22T03:00:00:Z","depth":"4","parameterNumber":2,"parameterNumberName":"U-component_of_CURRENTS"},"data":[0,0,0,0.1707,0.1711,0.1898,0.1899,0.2016,0.2017,0,0,0,0,0,0,0,0,0,0,0,0.1641,0.1642,0.1707,0.1712,0.1898,0.1899,0.2016,0.2017,0,0,0,0,0,0,0,0,0,0,0,0.164,0.1642,0.1644,0.1713,0.1898,0.1899,0.2016,0.1904,0,0,0,0,0,0,0,0,0,0,0.1737,0.1704,0.1641,0.1644,0.1714,0.1898,0.1899,0.1899,0.191,0.1899,0,0.194,0,0.1983,0.2022,0.2023,0,0,0,0.1706,0.1695,0.1739,0.1644,0.1716,0.1898,0.1812,0.1907,0.1919,0.1912,0.1942,0.1947,0.1985,0.2023,0.2023,0.2129,0.213,0,0,0.1695,0.1677,0.1731,0.1747,0.1778,0.1807,0.1818,0.1915,0.1935,0.1942,0.1951,0.1987,0.2023,0.2024,0.2129,0.2129,0,0,0,0.167,0.167,0.1714,0.1741,0.1786,0.1812,0.1826,0.1931,0.1945,0.1953,0.1988,0.2024,0.2025,0.2128,0.2129,0.2219,0,0,0,0.1663,0.1656,0.1709,0.1701,0.1785,0.1881,0.1839,0.1938,0.1951,0.1988,0.2024,0.2026,0.2127,0.2128,0.2215,0.2239,0,0,0,0.163,0.1653,0.1677,0.1699,0.1783,0.188,0.1901,0.1942,0.1972,0.2023,0.2026,0.2127,0.2128,0.2212,0.2233,0.2321,0,0,0,0.1599,0.1628,0.1677,0.1728,0.1782,0.1879,0.1901,0.1987,0.2035,0.2024,0.2127,0.2129,0.2211,0.223,0.2317,0.2009,0,0,0,0.1605,0.1629,0.1657,0.1705,0.1786,0.1851,0.1952,0.2028,0.2045,0.2084,0.2088,0.2217,0.2233,0.232,0.2085,0,0,0,0,0.1638,0.1664,0.1696,0.1768,0.1843,0.1949,0.2026,0.2072,0.2167,0.2083,0.2217,0.2224,0.2277,0.2084,0.2135,0.2135,0.2135,0.2134,0.2134,0.1606,0.1661,0.1723,0.1811,0.1886,0.2021,0.2109,0.2187,0.2195,0.2261,0.2299,0.2423,0.2222,0.2307,0.2307,0.2308,0.2308,0.2308,0.2308,0.1615,0.165,0.1753,0.1839,0.1958,0.2064,0.2214,0.2272,0.2411,0.2378,0.2426,0.2192,0.2317,0.2316,0.2314,0.2313,0.2312,0.2312,0.2311,0.1582,0.1607,0.1694,0.1831,0.1979,0.2122,0.2259,0.2392,0.2484,0.2554,0.2378,0.2493,0.2486,0.2607,0.2608,0.2608,0.2609,0.2609,0.2609,0.1504,0.1587,0.167,0.1827,0.1924,0.2087,0.2318,0.2405,0.2542,0.2438,0.2601,0.2524,0.2515,0.2503,0.2617,0.2616,0.2615,0.2614,0.2614,0.1438,0.15,0.1596,0.1691,0.1886,0.1972,0.222,0.2321,0.2412,0.2399,0.2376,0.2386,0.2328,0.2324,0.2303,0.2363,0.2359,0.2356,0,0.1379,0.1419,0.1527,0.1621,0.172,0.1888,0.1924,0.2065,0.2194,0.2112,0.2424,0.2395,0.2399,0.2329,0.232,0.2291,0,0,0,0.1332,0.1378,0.1412,0.153,0.1621,0.1735,0.192,0.1903,0.2158,0.2158,0.2268,0.2291,0.2489,0.2641,0.2576,0.2564,0.2543,0,0]},{"header":{"parameterUnit":"m.s-1","parameterCategory":2,"la1":30.2992,"la2":30.254,"lo1":-89.0895,"lo2":-89.0443,"dy":0.0025,"dx":0.0025,"nx":19,"ny":19,"refTime":"2026-04-22T03:00:00:Z","depth":"4","parameterNumber":3,"parameterNumberName":"V-component_of_CURRENTS"},"data":[0,0,0,0.0158,0.0158,0.012,0.012,0.0052,0.0052,0,0,0,0,0,0,0,0,0,0,0,0.0171,0.0171,0.0158,0.0157,0.012,0.012,0.0052,0.0052,0,0,0,0,0,0,0,0,0,0,0,0.0171,0.0171,0.0171,0.0157,0.012,0.012,0.0053,0.0083,0,0,0,0,0,0,0,0,0,0,0.0121,0.0136,0.0171,0.0171,0.0157,0.012,0.012,0.0084,0.0081,0.0067,0,0.007,0,0.0064,0.0048,0.0048,0,0,0,0.0146,0.0139,0.0135,0.0171,0.0157,0.012,0.0134,0.0083,0.0079,0.0063,0.0069,0.0066,0.0063,0.0048,0.0047,0.0068,0.0068,0,0,0.0148,0.0155,0.0138,0.0133,0.0158,0.0135,0.0133,0.008,0.0077,0.0069,0.0065,0.0061,0.0047,0.0047,0.0067,0.0068,0,0,0,0.0162,0.0157,0.0153,0.0135,0.0133,0.0134,0.0131,0.0079,0.008,0.0064,0.0061,0.0047,0.0046,0.0066,0.0067,0.0147,0,0,0,0.0162,0.0166,0.0155,0.0157,0.0134,0.0107,0.0131,0.0083,0.0077,0.0061,0.0047,0.0045,0.0066,0.0067,0.0143,0.0189,0,0,0,0.0171,0.0166,0.0167,0.0158,0.0148,0.0108,0.0105,0.0082,0.0076,0.0048,0.0045,0.0065,0.0067,0.014,0.0183,0.0201,0,0,0,0.0173,0.0205,0.0167,0.0201,0.0148,0.0172,0.0105,0.0105,0.009,0.0046,0.0066,0.0067,0.0139,0.0179,0.0198,0.0222,0,0,0,0.0222,0.021,0.0234,0.02,0.0246,0.0176,0.0212,0.0155,0.0108,0.0077,0.0078,0.0144,0.0182,0.0201,0.0314,0,0,0,0,0.0256,0.0272,0.028,0.0292,0.0288,0.0281,0.0226,0.0199,0.0169,0.0107,0.0154,0.0176,0.0184,0.0189,0.0075,0.0075,0.0075,0.0074,0.0074,0.0322,0.0327,0.0373,0.0376,0.0384,0.0353,0.0341,0.0293,0.0237,0.024,0.0248,0.0328,0.0339,0.0249,0.0249,0.0249,0.025,0.025,0.025,0.0401,0.0426,0.0435,0.0481,0.0472,0.049,0.0445,0.0402,0.0382,0.033,0.0333,0.0283,0.0258,0.0257,0.0255,0.0255,0.0254,0.0253,0.0253,0.0439,0.0453,0.0481,0.0541,0.0587,0.0573,0.0612,0.0552,0.0466,0.0475,0.0453,0.038,0.0363,0.047,0.047,0.047,0.047,0.0471,0.0471,0.0454,0.0486,0.0547,0.061,0.066,0.0715,0.0711,0.0692,0.0606,0.0558,0.05,0.0402,0.0395,0.0375,0.0476,0.0475,0.0474,0.0474,0.0473,0.0467,0.0499,0.0589,0.0651,0.0781,0.0826,0.0839,0.0788,0.0767,0.0703,0.0584,0.0577,0.0545,0.0534,0.0518,0.0664,0.0665,0.0665,0,0.0471,0.0496,0.0617,0.0727,0.0844,0.0888,0.091,0.0882,0.0754,0.0736,0.0728,0.0593,0.0587,0.055,0.0542,0.0524,0,0,0,0.0461,0.051,0.0587,0.0724,0.0862,0.0897,0.0914,0.0885,0.0782,0.0768,0.0683,0.0678,0.0606,0.049,0.0424,0.0415,0.0381,0,0]}]]